| time (UTC) | temp C | wind direction | speed KPH | gust KPH | rain 1hr cm | rain 24hr cm | rain mn cm | humidity % | barometer mb |
| 20260906162638 | 32 | 87 | 4.8 | 8.0 | 0.00 | 0.13 | 0.00 | 63 | 1013.0 |
| 20260906161738 | 32 | 83 | 3.2 | 12.9 | 0.00 | 0.13 | 0.00 | 64 | 1013.3 |
| 20260906161514 | 32 | 109 | 3.2 | 9.7 | 0.00 | 0.13 | 0.00 | 64 | 1012.0 |
| 20260906160838 | 32 | 2 | 3.2 | 8.0 | 0.00 | 0.13 | 0.00 | 65 | 1013.3 |
| 20260906160016 | 31 | 320 | 1.6 | 6.4 | 0.00 | 0.13 | 0.00 | 65 | 1012.2 |
| 20260906155938 | 31 | 88 | 1.6 | 6.4 | 0.00 | 0.13 | 0.00 | 66 | 1013.4 |
| 20260906155038 | 31 | 94 | 3.2 | 8.0 | 0.00 | 0.13 | 0.00 | 67 | 1013.6 |
| 20260906154515 | 31 | 137 | 3.2 | 8.0 | 0.00 | 0.13 | 0.00 | 67 | 1012.5 |
| 20260906154138 | 31 | 63 | 3.2 | 9.7 | 0.00 | 0.13 | 0.00 | 67 | 1013.6 |
| 20260906153238 | 31 | 62 | 3.2 | 8.0 | 0.00 | 0.13 | 0.00 | 68 | 1013.6 |
| 20260906153023 | 30 | 111 | 1.6 | 4.8 | 0.00 | 0.13 | 0.00 | 68 | 1012.5 |
| 20260906152359 | 30 | 29 | 3.2 | 8.0 | 0.00 | 0.13 | 0.00 | 68 | 1013.7 |
| 20260906151519 | 30 | 123 | 1.6 | 6.4 | 0.00 | 0.13 | 0.00 | 71 | 1012.4 |
| 20260906151438 | 30 | 74 | 1.6 | 6.4 | 0.00 | 0.13 | 0.00 | 70 | 1013.6 |
| 20260906150538 | 29 | 62 | 3.2 | 6.4 | 0.00 | 0.13 | 0.00 | 69 | 1013.6 |
| 20260906150111 | 29 | 82 | 3.2 | 6.4 | 0.00 | 0.13 | 0.00 | 70 | 1012.4 |
| 20260906145659 | 29 | 87 | 1.6 | 6.4 | 0.00 | 0.13 | 0.00 | 70 | 1013.7 |
| 20260906144738 | 28 | 107 | 1.6 | 4.8 | 0.00 | 0.13 | 0.00 | 71 | 1013.7 |
| 20260906144504 | 28 | 92 | 1.6 | 4.8 | 0.00 | 0.13 | 0.00 | 72 | 1012.4 |
| 20260906143838 | 28 | 100 | 3.2 | 4.8 | 0.00 | 0.13 | 0.00 | 72 | 1013.7 |
| 20260906143011 | 28 | 151 | 0.0 | 4.8 | 0.00 | 0.13 | 0.00 | 76 | 1012.4 |
| 20260906142959 | 28 | 359 | 1.6 | 4.8 | 0.00 | 0.13 | 0.00 | 76 | 1013.6 |
| 20260906142038 | 28 | 337 | 1.6 | 4.8 | 0.00 | 0.13 | 0.00 | 75 | 1013.6 |
| 20260906141521 | 27 | 277 | 0.0 | 4.8 | 0.00 | 0.13 | 0.00 | 77 | 1012.5 |
| 20260906141138 | 27 | 247 | 1.6 | 4.8 | 0.00 | 0.13 | 0.00 | 77 | 1013.8 |
| 20260906140238 | 27 | 255 | 3.2 | 4.8 | 0.00 | 0.13 | 0.00 | 78 | 1013.8 |
| 20260906140011 | 26 | 257 | 1.6 | 4.8 | 0.00 | 0.13 | 0.00 | 78 | 1012.6 |
| 20260906135338 | 26 | 276 | 1.6 | 6.4 | 0.00 | 0.13 | 0.00 | 79 | 1013.9 |
| 20260906134512 | 26 | 252 | 1.6 | 4.8 | 0.00 | 0.13 | 0.00 | 81 | 1012.7 |
| 20260906134438 | 26 | 341 | 1.6 | 4.8 | 0.00 | 0.13 | 0.00 | 82 | 1013.9 |
| 20260906133538 | 25 | 291 | 1.6 | 4.8 | 0.00 | 0.13 | 0.00 | 83 | 1014.0 |
| 20260906133014 | 25 | 180 | 1.6 | 4.8 | 0.00 | 0.13 | 0.00 | 86 | 1012.9 |
| 20260906132638 | 25 | 290 | 1.6 | 3.2 | 0.00 | 0.13 | 0.00 | 87 | 1014.1 |
| 20260906131738 | 24 | 265 | 0.0 | 1.6 | 0.00 | 0.13 | 0.00 | 89 | 1014.1 |
| 20260906131516 | 24 | 259 | 0.0 | 1.6 | 0.00 | 0.13 | 0.00 | 89 | 1013.0 |
| 20260906130838 | 24 | 0 | 0.0 | 0.0 | 0.00 | 0.13 | 0.00 | 90 | 1014.2 |
| 20260906130004 | 23 | 289 | 0.0 | 3.2 | 0.00 | 0.13 | 0.00 | 90 | 1012.8 |
| 20260906125959 | 23 | 290 | 0.0 | 3.2 | 0.00 | 0.13 | 0.00 | 90 | 1014.1 |
| 20260906125038 | 23 | 289 | 0.0 | 3.2 | 0.00 | 0.13 | 0.00 | 91 | 1014.1 |
| 20260906124509 | 23 | 290 | 0.0 | 1.6 | 0.00 | 0.13 | 0.00 | 91 | 1012.9 |
| 20260906124159 | 23 | 289 | 0.0 | 1.6 | 0.00 | 0.13 | 0.00 | 92 | 1014.2 |
| 20260906123238 | 23 | 291 | 1.6 | 4.8 | 0.00 | 0.13 | 0.00 | 92 | 1014.1 |
| 20260906123019 | 22 | 290 | 1.6 | 4.8 | 0.00 | 0.13 | 0.00 | 92 | 1013.1 |
| 20260906122338 | 23 | 293 | 1.6 | 4.8 | 0.00 | 0.13 | 0.00 | 92 | 1014.1 |
| 20260906121518 | 22 | 294 | 0.0 | 4.8 | 0.00 | 0.13 | 0.00 | 92 | 1012.8 |
| 20260906121438 | 22 | 323 | 1.6 | 4.8 | 0.00 | 0.13 | 0.00 | 92 | 1013.9 |
| 20260906120538 | 22 | 342 | 0.0 | 3.2 | 0.00 | 0.13 | 0.00 | 92 | 1013.7 |
| 20260906120009 | 22 | 342 | 0.0 | 3.2 | 0.00 | 0.13 | 0.00 | 92 | 1012.4 |
| 20260906115638 | 22 | 342 | 1.6 | 3.2 | 0.00 | 0.13 | 0.00 | 92 | 1013.5 |
| 20260906114738 | 22 | 343 | 1.6 | 3.2 | 0.00 | 0.13 | 0.00 | 92 | 1013.4 |
| 20260906114505 | 22 | 342 | 0.0 | 3.2 | 0.00 | 0.13 | 0.00 | 92 | 1012.2 |
| 20260906113838 | 22 | 348 | 1.6 | 3.2 | 0.00 | 0.13 | 0.00 | 92 | 1013.3 |
| 20260906113008 | 22 | 350 | 0.0 | 0.0 | 0.00 | 0.13 | 0.00 | 92 | 1011.9 |
| 20260906112938 | 22 | 0 | 0.0 | 0.0 | 0.00 | 0.13 | 0.00 | 92 | 1013.0 |
| 20260906112038 | 22 | 350 | 0.0 | 3.2 | 0.00 | 0.13 | 0.00 | 92 | 1013.0 |
| 20260906111514 | 22 | 350 | 0.0 | 3.2 | 0.00 | 0.13 | 0.00 | 92 | 1011.9 |
| 20260906111138 | 22 | 348 | 1.6 | 3.2 | 0.00 | 0.13 | 0.00 | 92 | 1012.9 |
| 20260906110238 | 22 | 346 | 1.6 | 3.2 | 0.00 | 0.13 | 0.00 | 92 | 1012.9 |
| 20260906110003 | 22 | 348 | 0.0 | 3.2 | 0.00 | 0.13 | 0.00 | 92 | 1011.8 |
| 20260906105338 | 22 | 331 | 0.0 | 1.6 | 0.00 | 0.13 | 0.00 | 92 | 1012.9 |
| 20260906104511 | 22 | 331 | 0.0 | 1.6 | 0.00 | 0.13 | 0.00 | 92 | 1011.7 |
| 20260906104438 | 22 | 331 | 0.0 | 1.6 | 0.00 | 0.13 | 0.00 | 92 | 1012.9 |
| 20260906103538 | 22 | 331 | 0.0 | 1.6 | 0.00 | 0.13 | 0.00 | 92 | 1012.9 |
| 20260906103031 | 22 | 331 | 0.0 | 1.6 | 0.00 | 0.13 | 0.00 | 92 | 1011.7 |
| 20260906102659 | 22 | 331 | 1.6 | 3.2 | 0.00 | 0.13 | 0.00 | 92 | 1013.0 |
| 20260906101738 | 22 | 331 | 0.0 | 1.6 | 0.00 | 0.13 | 0.00 | 92 | 1012.9 |
| 20260906101518 | 22 | 331 | 0.0 | 1.6 | 0.00 | 0.13 | 0.00 | 92 | 1011.9 |
| 20260906100838 | 22 | 331 | 0.0 | 3.2 | 0.00 | 0.13 | 0.00 | 92 | 1012.9 |
| 20260906100021 | 22 | 331 | 0.0 | 3.2 | 0.00 | 0.13 | 0.00 | 92 | 1011.9 |
| 20260906095959 | 22 | 331 | 0.0 | 3.2 | 0.00 | 0.13 | 0.00 | 92 | 1013.0 |
| 20260906095038 | 22 | 331 | 0.0 | 1.6 | 0.00 | 0.13 | 0.00 | 92 | 1013.2 |
| 20260906094511 | 22 | 331 | 0.0 | 1.6 | 0.00 | 0.13 | 0.00 | 92 | 1012.1 |
| 20260906094159 | 22 | 330 | 0.0 | 1.6 | 0.00 | 0.13 | 0.00 | 92 | 1013.4 |
| 20260906093238 | 22 | 329 | 0.0 | 3.2 | 0.00 | 0.13 | 0.00 | 92 | 1013.4 |
| 20260906093019 | 22 | 360 | 0.0 | 1.6 | 0.00 | 0.13 | 0.00 | 92 | 1012.2 |
| 20260906092338 | 22 | 330 | 1.6 | 3.2 | 0.00 | 0.13 | 0.00 | 92 | 1013.3 |
| 20260906091506 | 22 | 329 | 0.0 | 3.2 | 0.00 | 0.13 | 0.00 | 92 | 1012.1 |
| 20260906091438 | 22 | 328 | 1.6 | 3.2 | 0.00 | 0.13 | 0.00 | 92 | 1013.2 |
| 20260906090559 | 22 | 326 | 1.6 | 3.2 | 0.00 | 0.13 | 0.00 | 92 | 1013.1 |
| 20260906090012 | 22 | 321 | 1.6 | 3.2 | 0.00 | 0.13 | 0.00 | 92 | 1012.0 |
| 20260906085638 | 22 | 327 | 1.6 | 3.2 | 0.00 | 0.13 | 0.00 | 92 | 1013.2 |
| 20260906084738 | 22 | 326 | 0.0 | 1.6 | 0.00 | 0.13 | 0.00 | 92 | 1013.3 |
| 20260906084603 | 22 | 360 | 0.0 | 1.6 | 0.00 | 0.13 | 0.00 | 92 | 1012.1 |
| 20260906083838 | 22 | 323 | 0.0 | 1.6 | 0.00 | 0.13 | 0.00 | 92 | 1013.0 |
| 20260906083008 | 22 | 321 | 0.0 | 3.2 | 0.00 | 0.13 | 0.00 | 92 | 1012.1 |
| 20260906082938 | 22 | 325 | 1.6 | 3.2 | 0.00 | 0.13 | 0.00 | 92 | 1013.3 |
| 20260906082038 | 22 | 319 | 1.6 | 1.6 | 0.00 | 0.13 | 0.00 | 92 | 1013.1 |
| 20260906081513 | 22 | 360 | 0.0 | 1.6 | 0.00 | 0.13 | 0.00 | 92 | 1011.7 |
| 20260906081139 | 22 | 318 | 0.0 | 1.6 | 0.00 | 0.13 | 0.00 | 92 | 1012.7 |
| 20260906080238 | 22 | 321 | 1.6 | 1.6 | 0.00 | 0.13 | 0.00 | 92 | 1012.6 |
| 20260906080002 | 22 | 318 | 0.0 | 1.6 | 0.00 | 0.13 | 0.00 | 92 | 1011.4 |
| 20260906075400 | 22 | 322 | 1.6 | 3.2 | 0.00 | 0.13 | 0.00 | 92 | 1012.5 |
| 20260906074507 | 22 | 316 | 0.0 | 1.6 | 0.00 | 0.13 | 0.00 | 91 | 1011.4 |
| 20260906074438 | 22 | 316 | 0.0 | 1.6 | 0.00 | 0.13 | 0.00 | 91 | 1012.6 |
| 20260906073600 | 22 | 319 | 0.0 | 3.2 | 0.00 | 0.13 | 0.00 | 91 | 1012.6 |
| 20260906073009 | 22 | 316 | 0.0 | 3.2 | 0.00 | 0.13 | 0.00 | 91 | 1011.5 |
| 20260906072638 | 22 | 317 | 1.6 | 3.2 | 0.00 | 0.13 | 0.00 | 91 | 1012.8 |
| 20260906071739 | 22 | 0 | 0.0 | 0.0 | 0.00 | 0.13 | 0.00 | 91 | 1012.6 |
| 20260906071514 | 22 | 63 | 0.0 | 0.0 | 0.00 | 0.13 | 0.00 | 91 | 1011.5 |
| 20260906070839 | 23 | 0 | 0.0 | 0.0 | 0.00 | 0.13 | 0.00 | 92 | 1013.2 |
| 20260906070004 | 22 | 65 | 0.0 | 0.0 | 0.00 | 0.13 | 0.00 | 92 | 1011.7 |
| 20260906065938 | 23 | 0 | 0.0 | 0.0 | 0.00 | 0.13 | 0.00 | 92 | 1012.9 |
| 20260906065039 | 23 | 0 | 0.0 | 0.0 | 0.00 | 0.13 | 0.00 | 91 | 1012.9 |
| 20260906064508 | 22 | 65 | 0.0 | 0.0 | 0.00 | 0.13 | 0.00 | 91 | 1011.6 |
| 20260906064139 | 23 | 0 | 0.0 | 0.0 | 0.00 | 0.13 | 0.00 | 91 | 1012.8 |
| 20260906063239 | 23 | 0 | 0.0 | 0.0 | 0.00 | 0.13 | 0.00 | 91 | 1012.8 |
| 20260906063011 | 22 | 65 | 0.0 | 0.0 | 0.00 | 0.13 | 0.00 | 91 | 1011.7 |
| 20260906062339 | 23 | 0 | 0.0 | 0.0 | 0.00 | 0.13 | 0.00 | 91 | 1012.9 |
| 20260906061523 | 23 | 65 | 0.0 | 0.0 | 0.00 | 0.13 | 0.00 | 91 | 1011.9 |
| 20260906061438 | 23 | 0 | 0.0 | 0.0 | 0.00 | 0.13 | 0.00 | 91 | 1013.0 |
| 20260906060539 | 23 | 66 | 0.0 | 1.6 | 0.00 | 0.13 | 0.00 | 91 | 1012.9 |
| 20260906060005 | 23 | 71 | 0.0 | 1.6 | 0.00 | 0.13 | 0.00 | 91 | 1011.7 |
| 20260906055639 | 23 | 57 | 0.0 | 1.6 | 0.00 | 0.13 | 0.00 | 91 | 1012.9 |
| 20260906054739 | 23 | 64 | 1.6 | 3.2 | 0.00 | 0.13 | 0.00 | 91 | 1013.0 |
| 20260906054522 | 23 | 69 | 0.0 | 3.2 | 0.00 | 0.13 | 0.00 | 91 | 1011.8 |
| 20260906053839 | 23 | 59 | 0.0 | 3.2 | 0.00 | 0.13 | 0.00 | 91 | 1013.1 |
| 20260906053009 | 23 | 57 | 0.0 | 1.6 | 0.00 | 0.13 | 0.00 | 90 | 1011.9 |
| 20260906052939 | 23 | 56 | 1.6 | 1.6 | 0.00 | 0.13 | 0.00 | 90 | 1013.2 |
| 20260906052039 | 23 | 57 | 0.0 | 3.2 | 0.00 | 0.13 | 0.00 | 90 | 1013.3 |
| 20260906051514 | 23 | 64 | 0.0 | 0.0 | 0.00 | 0.13 | 0.00 | 90 | 1012.2 |
| 20260906051139 | 23 | 45 | 0.0 | 3.2 | 0.00 | 0.13 | 0.00 | 90 | 1013.5 |
| 20260906050239 | 23 | 51 | 0.0 | 3.2 | 0.00 | 0.13 | 0.00 | 90 | 1013.6 |
| 20260906045339 | 23 | 71 | 0.0 | 1.6 | 0.00 | 0.13 | 0.00 | 90 | 1013.5 |
| 20260906044508 | 23 | 69 | 0.0 | 1.6 | 0.00 | 0.13 | 0.00 | 90 | 1012.4 |
| 20260906044439 | 23 | 65 | 0.0 | 1.6 | 0.00 | 0.13 | 0.00 | 90 | 1013.6 |
| 20260906043539 | 23 | 60 | 0.0 | 1.6 | 0.00 | 0.13 | 0.00 | 90 | 1013.7 |
| 20260906043020 | 23 | 59 | 0.0 | 1.6 | 0.00 | 0.13 | 0.00 | 89 | 1012.5 |
| 20260906042639 | 24 | 57 | 1.6 | 3.2 | 0.00 | 0.13 | 0.00 | 89 | 1013.6 |
| 20260906041739 | 24 | 58 | 0.0 | 1.6 | 0.00 | 0.13 | 0.00 | 89 | 1013.7 |
| 20260906041509 | 23 | 58 | 0.0 | 1.6 | 0.00 | 0.13 | 0.00 | 89 | 1012.5 |
| 20260906040839 | 24 | 0 | 0.0 | 0.0 | 0.00 | 0.13 | 0.00 | 89 | 1013.7 |
| 20260906040012 | 24 | 55 | 0.0 | 1.6 | 0.00 | 0.13 | 0.00 | 89 | 1012.4 |
| 20260906040000 | 24 | 54 | 0.0 | 1.6 | 0.00 | 0.13 | 0.00 | 89 | 1013.6 |
| 20260906035039 | 24 | 53 | 1.6 | 3.2 | 0.00 | 0.13 | 0.13 | 89 | 1013.6 |
| 20260906034517 | 24 | 53 | 0.0 | 3.2 | 0.00 | 0.13 | 0.13 | 89 | 1012.4 |
| 20260906034139 | 24 | 53 | 0.0 | 3.2 | 0.00 | 0.13 | 0.13 | 89 | 1013.8 |
| 20260906033239 | 25 | 62 | 0.0 | 1.6 | 0.00 | 0.13 | 0.13 | 89 | 1013.8 |
| 20260906033005 | 24 | 53 | 0.0 | 1.6 | 0.00 | 0.13 | 0.13 | 89 | 1012.5 |
| 20260906032339 | 25 | 77 | 1.6 | 3.2 | 0.00 | 0.13 | 0.13 | 88 | 1013.8 |
| 20260906031512 | 24 | 78 | 0.0 | 3.2 | 0.00 | 0.13 | 0.13 | 88 | 1012.6 |
| 20260906031500 | 25 | 78 | 1.6 | 3.2 | 0.00 | 0.13 | 0.13 | 88 | 1013.8 |
| 20260906030539 | 25 | 78 | 0.0 | 3.2 | 0.00 | 0.13 | 0.13 | 88 | 1013.9 |
| 20260906030017 | 25 | 79 | 0.0 | 1.6 | 0.00 | 0.13 | 0.13 | 88 | 1012.5 |
| 20260906025639 | 25 | 78 | 0.0 | 1.6 | 0.00 | 0.13 | 0.13 | 88 | 1013.7 |
| 20260906024739 | 25 | 86 | 0.0 | 3.2 | 0.00 | 0.13 | 0.13 | 88 | 1013.6 |
| 20260906024507 | 25 | 78 | 0.0 | 3.2 | 0.00 | 0.13 | 0.13 | 88 | 1012.3 |
| 20260906023839 | 25 | 135 | 0.0 | 1.6 | 0.00 | 0.13 | 0.13 | 87 | 1013.5 |
| 20260906023012 | 25 | 135 | 0.0 | 4.8 | 0.00 | 0.13 | 0.13 | 88 | 1012.1 |
| 20260906022939 | 25 | 346 | 1.6 | 4.8 | 0.00 | 0.13 | 0.13 | 87 | 1013.4 |
| 20260906022100 | 25 | 331 | 1.6 | 3.2 | 0.00 | 0.13 | 0.13 | 88 | 1013.7 |
| 20260906021606 | 25 | 331 | 1.6 | 3.2 | 0.00 | 0.13 | 0.13 | 88 | 1012.3 |
| 20260906021139 | 25 | 331 | 1.6 | 3.2 | 0.00 | 0.13 | 0.13 | 88 | 1013.6 |
| 20260906020239 | 25 | 331 | 0.0 | 3.2 | 0.00 | 0.13 | 0.13 | 87 | 1013.5 |
| 20260906020007 | 25 | 331 | 0.0 | 3.2 | 0.00 | 0.13 | 0.13 | 87 | 1012.3 |
| 20260906015339 | 25 | 330 | 0.0 | 3.2 | 0.00 | 0.13 | 0.13 | 87 | 1013.6 |
| 20260906014517 | 25 | 330 | 0.0 | 3.2 | 0.00 | 0.13 | 0.13 | 87 | 1012.3 |
| 20260906014439 | 25 | 330 | 0.0 | 3.2 | 0.00 | 0.13 | 0.13 | 87 | 1013.6 |
| 20260906013539 | 25 | 329 | 1.6 | 3.2 | 0.00 | 0.13 | 0.13 | 87 | 1013.5 |
| 20260906013031 | 25 | 330 | 1.6 | 3.2 | 0.00 | 0.13 | 0.13 | 87 | 1012.2 |
| 20260906012639 | 25 | 326 | 0.0 | 3.2 | 0.00 | 0.13 | 0.13 | 87 | 1013.3 |
| 20260906011739 | 25 | 20 | 1.6 | 4.8 | 0.00 | 0.13 | 0.13 | 86 | 1013.0 |
| 20260906011503 | 25 | 326 | 1.6 | 4.8 | 0.00 | 0.13 | 0.13 | 86 | 1011.7 |
| 20260906010900 | 25 | 76 | 1.6 | 3.2 | 0.00 | 0.13 | 0.13 | 86 | 1012.6 |
| 20260906010011 | 25 | 78 | 0.0 | 3.2 | 0.00 | 0.13 | 0.13 | 86 | 1011.0 |
| 20260906010000 | 26 | 79 | 0.0 | 3.2 | 0.00 | 0.13 | 0.13 | 86 | 1012.2 |
| 20260906005100 | 26 | 76 | 0.0 | 1.6 | 0.00 | 0.13 | 0.13 | 86 | 1011.7 |
| 20260906004515 | 26 | 76 | 0.0 | 3.2 | 0.00 | 0.13 | 0.13 | 86 | 1010.5 |
| 20260906004139 | 26 | 61 | 1.6 | 3.2 | 0.00 | 0.13 | 0.13 | 86 | 1011.8 |
| 20260906003300 | 26 | 61 | 1.6 | 1.6 | 0.00 | 0.13 | 0.13 | 86 | 1011.7 |
| 20260906003010 | 26 | 61 | 0.0 | 1.6 | 0.00 | 0.13 | 0.13 | 86 | 1010.4 |
| 20260906002339 | 26 | 61 | 0.0 | 3.2 | 0.00 | 0.13 | 0.13 | 85 | 1011.7 |
| 20260906001512 | 26 | 61 | 0.0 | 3.2 | 0.00 | 0.13 | 0.13 | 84 | 1010.5 |
| 20260906001439 | 26 | 65 | 1.6 | 3.2 | 0.00 | 0.13 | 0.13 | 84 | 1011.8 |
| 20260906000539 | 27 | 63 | 0.0 | 3.2 | 0.00 | 0.13 | 0.13 | 84 | 1011.9 |
| 20260906000016 | 27 | 57 | 0.0 | 1.6 | 0.00 | 0.13 | 0.13 | 84 | 1010.6 |
| 20260905235639 | 27 | 57 | 1.6 | 3.2 | 0.00 | 0.13 | 0.13 | 83 | 1011.9 |
| 20260905234739 | 28 | 64 | 0.0 | 3.2 | 0.00 | 0.13 | 0.13 | 83 | 1012.2 |
| 20260905234504 | 27 | 63 | 0.0 | 3.2 | 0.00 | 0.13 | 0.13 | 82 | 1010.8 |
| 20260905233839 | 28 | 63 | 0.0 | 1.6 | 0.00 | 0.13 | 0.13 | 79 | 1012.1 |
| 20260905233009 | 28 | 63 | 0.0 | 1.6 | 0.00 | 0.13 | 0.13 | 81 | 1010.6 |
| 20260905232939 | 28 | 65 | 0.0 | 1.6 | 0.00 | 0.13 | 0.13 | 80 | 1011.9 |
| 20260905232039 | 27 | 66 | 1.6 | 3.2 | 0.00 | 0.13 | 0.13 | 78 | 1011.7 |
| 20260905231515 | 27 | 67 | 1.6 | 3.2 | 0.00 | 0.13 | 0.13 | 80 | 1010.3 |
| 20260905231139 | 27 | 63 | 1.6 | 3.2 | 0.00 | 0.13 | 0.13 | 82 | 1011.6 |
| 20260905230239 | 27 | 62 | 1.6 | 3.2 | 0.00 | 0.13 | 0.13 | 81 | 1011.5 |
| 20260905230005 | 27 | 62 | 0.0 | 3.2 | 0.00 | 0.13 | 0.13 | 83 | 1010.1 |
| 20260905225400 | 27 | 48 | 1.6 | 3.2 | 0.00 | 0.13 | 0.13 | 83 | 1011.4 |
| 20260905224515 | 27 | 22 | 3.2 | 4.8 | 0.08 | 0.13 | 0.13 | 84 | 1010.4 |
| 20260905224439 | 27 | 56 | 3.2 | 4.8 | 0.08 | 0.13 | 0.13 | 84 | 1011.7 |
| 20260905223539 | 27 | 62 | 0.0 | 3.2 | 0.13 | 0.13 | 0.13 | 80 | 1011.5 |
| 20260905223014 | 27 | 63 | 0.0 | 4.8 | 0.13 | 0.13 | 0.13 | 80 | 1010.1 |
| 20260905222700 | 27 | 70 | 1.6 | 4.8 | 0.13 | 0.13 | 0.13 | 80 | 1011.5 |
| 20260905221800 | 27 | 71 | 1.6 | 6.4 | 0.13 | 0.13 | 0.13 | 81 | 1011.9 |
| 20260905221502 | 27 | 73 | 3.2 | 6.4 | 0.13 | 0.13 | 0.13 | 80 | 1010.5 |
| 20260905220839 | 27 | 121 | 1.6 | 3.2 | 0.13 | 0.13 | 0.13 | 79 | 1011.9 |
| 20260905220007 | 28 | 94 | 0.0 | 6.4 | 0.13 | 0.13 | 0.13 | 75 | 1010.8 |
| 20260905215939 | 29 | 109 | 3.2 | 12.9 | 0.13 | 0.13 | 0.13 | 75 | 1012.2 |
| 20260905215039 | 31 | 325 | 4.8 | 14.5 | 0.13 | 0.13 | 0.13 | 65 | 1012.1 |
| 20260905214512 | 33 | 271 | 3.2 | 16.1 | 0.05 | 0.05 | 0.05 | 65 | 1010.6 |
| 20260905214139 | 34 | 73 | 6.4 | 16.1 | 0.03 | 0.03 | 0.03 | 61 | 1011.7 |
| 20260905213239 | 35 | 60 | 3.2 | 9.7 | 0.00 | 0.00 | 0.00 | 55 | 1011.2 |
| 20260905213016 | 35 | 82 | 3.2 | 6.4 | 0.00 | 0.00 | 0.00 | 59 | 1009.9 |
| 20260905212339 | 36 | 274 | 0.0 | 3.2 | 0.00 | 0.00 | 0.00 | 54 | 1011.0 |
| 20260905211504 | 36 | 337 | 0.0 | 3.2 | 0.00 | 0.00 | 0.00 | 51 | 1009.8 |
| 20260905211439 | 36 | 338 | 1.6 | 3.2 | 0.00 | 0.00 | 0.00 | 50 | 1011.1 |
| 20260905210539 | 36 | 6 | 3.2 | 6.4 | 0.00 | 0.00 | 0.00 | 49 | 1011.0 |
| 20260905210016 | 36 | 39 | 1.6 | 8.0 | 0.00 | 0.00 | 0.00 | 48 | 1009.7 |
| 20260905205639 | 37 | 50 | 3.2 | 8.0 | 0.00 | 0.00 | 0.00 | 49 | 1010.9 |
| 20260905204800 | 37 | 47 | 3.2 | 6.4 | 0.00 | 0.00 | 0.00 | 48 | 1011.1 |
| 20260905204506 | 37 | 70 | 1.6 | 6.4 | 0.00 | 0.00 | 0.00 | 47 | 1009.8 |
| 20260905203839 | 37 | 75 | 1.6 | 6.4 | 0.00 | 0.00 | 0.00 | 47 | 1011.4 |
| 20260905203008 | 36 | 78 | 0.0 | 11.3 | 0.00 | 0.00 | 0.00 | 48 | 1010.1 |
| 20260905202940 | 37 | 80 | 3.2 | 11.3 | 0.00 | 0.00 | 0.00 | 49 | 1011.4 |
| 20260905202039 | 37 | 87 | 1.6 | 9.7 | 0.00 | 0.00 | 0.00 | 48 | 1011.5 |
| 20260905201517 | 36 | 360 | 3.2 | 9.7 | 0.00 | 0.00 | 0.00 | 50 | 1010.3 |
| 20260905201139 | 36 | 88 | 4.8 | 12.9 | 0.00 | 0.00 | 0.00 | 49 | 1011.6 |
| 20260905200239 | 36 | 81 | 4.8 | 9.7 | 0.00 | 0.00 | 0.00 | 50 | 1011.7 |
| 20260905200023 | 36 | 74 | 3.2 | 8.0 | 0.00 | 0.00 | 0.00 | 52 | 1010.4 |
| 20260905195340 | 36 | 89 | 3.2 | 11.3 | 0.00 | 0.00 | 0.00 | 53 | 1011.7 |
| 20260905194603 | 35 | 84 | 3.2 | 11.3 | 0.00 | 0.00 | 0.00 | 51 | 1010.5 |
| 20260905194440 | 35 | 74 | 3.2 | 11.3 | 0.00 | 0.00 | 0.00 | 51 | 1011.8 |
| 20260905193540 | 35 | 66 | 3.2 | 9.7 | 0.00 | 0.00 | 0.00 | 56 | 1011.9 |
| 20260905193104 | 35 | 66 | 3.2 | 8.0 | 0.00 | 0.00 | 0.00 | 54 | 1010.6 |
| 20260905192701 | 36 | 105 | 3.2 | 9.7 | 0.00 | 0.00 | 0.00 | 53 | 1012.0 |
| 20260905191801 | 36 | 93 | 4.8 | 11.3 | 0.00 | 0.00 | 0.00 | 50 | 1012.2 |
| 20260905191508 | 36 | 142 | 4.8 | 11.3 | 0.00 | 0.00 | 0.00 | 49 | 1010.9 |
| 20260905190840 | 36 | 176 | 3.2 | 6.4 | 0.00 | 0.00 | 0.00 | 49 | 1012.2 |
| 20260905190010 | 35 | 113 | 3.2 | 6.4 | 0.00 | 0.00 | 0.00 | 51 | 1011.0 |
| 20260905190001 | 36 | 109 | 3.2 | 9.7 | 0.00 | 0.00 | 0.00 | 52 | 1012.4 |
| 20260905185040 | 35 | 74 | 3.2 | 9.7 | 0.00 | 0.00 | 0.00 | 53 | 1012.4 |
| 20260905184521 | 35 | 76 | 3.2 | 9.7 | 0.00 | 0.00 | 0.00 | 53 | 1011.2 |
| 20260905184140 | 35 | 51 | 4.8 | 11.3 | 0.00 | 0.00 | 0.00 | 53 | 1012.6 |
| 20260905183239 | 35 | 52 | 3.2 | 9.7 | 0.00 | 0.00 | 0.00 | 53 | 1012.7 |
| 20260905183018 | 35 | 259 | 3.2 | 8.0 | 0.00 | 0.00 | 0.00 | 53 | 1011.3 |
| 20260905182340 | 35 | 117 | 3.2 | 9.7 | 0.00 | 0.00 | 0.00 | 54 | 1012.7 |
| 20260905181503 | 35 | 112 | 1.6 | 9.7 | 0.00 | 0.00 | 0.00 | 54 | 1011.8 |
| 20260905181501 | 35 | 113 | 3.2 | 8.0 | 0.00 | 0.00 | 0.00 | 54 | 1013.1 |
| 20260905180601 | 35 | 86 | 4.8 | 11.3 | 0.00 | 0.00 | 0.00 | 58 | 1013.2 |
| 20260905180009 | 35 | 77 | 3.2 | 11.3 | 0.00 | 0.00 | 0.00 | 58 | 1011.9 |
| 20260905175640 | 35 | 87 | 3.2 | 9.7 | 0.00 | 0.00 | 0.00 | 57 | 1013.3 |
| 20260905174740 | 35 | 84 | 4.8 | 9.7 | 0.00 | 0.00 | 0.00 | 59 | 1013.5 |
| 20260905174506 | 35 | 51 | 4.8 | 9.7 | 0.00 | 0.00 | 0.00 | 57 | 1012.2 |
| 20260905173840 | 35 | 78 | 3.2 | 9.7 | 0.00 | 0.00 | 0.00 | 58 | 1013.6 |
| 20260905173108 | 35 | 70 | 1.6 | 9.7 | 0.00 | 0.00 | 0.00 | 61 | 1012.3 |
| 20260905172940 | 35 | 71 | 4.8 | 12.9 | 0.00 | 0.00 | 0.00 | 61 | 1013.6 |
| 20260905172040 | 35 | 76 | 4.8 | 14.5 | 0.00 | 0.00 | 0.00 | 59 | 1013.7 |
| 20260905171505 | 34 | 69 | 3.2 | 14.5 | 0.00 | 0.00 | 0.00 | 61 | 1012.5 |
| 20260905171140 | 35 | 89 | 4.8 | 14.5 | 0.00 | 0.00 | 0.00 | 60 | 1013.8 |
| 20260905170240 | 34 | 87 | 3.2 | 14.5 | 0.00 | 0.00 | 0.00 | 60 | 1014.0 |
| 20260905170008 | 34 | 100 | 1.6 | 9.7 | 0.00 | 0.00 | 0.00 | 61 | 1012.6 |
| 20260905165340 | 34 | 79 | 3.2 | 9.7 | 0.00 | 0.00 | 0.00 | 62 | 1014.1 |
| 20260905164510 | 33 | 71 | 3.2 | 9.7 | 0.00 | 0.00 | 0.00 | 64 | 1012.9 |
| 20260905164440 | 33 | 70 | 3.2 | 9.7 | 0.00 | 0.00 | 0.00 | 64 | 1014.2 |
| 20260905163540 | 33 | 55 | 1.6 | 6.4 | 0.00 | 0.00 | 0.00 | 65 | 1014.2 |
| 20260905163013 | 33 | 57 | 0.0 | 9.7 | 0.00 | 0.00 | 0.00 | 65 | 1013.1 |